Theta_e
320 324 326 326 326 327 332 332 331 335 332 323 319 322 318 320 324 322 321 319 321 320 320 319 318 318 318 317 317 316 316 319 320 334 334 321 320 319 322 323 328 335 335 337 338 341 341 341 341 340 339 339 339 339 340 340 341 341 342 342 342 342 342 342 342 342 342 342 343 343 343 342 341 340 340 339 340 341 341 341 340 338 337 337 336 333 330 327 326 330 333 335 339 340 340 340 340
322 325 328 327 326 328 336 338 338 335 329 320 317 320 317 321 325 321 322 320 322 320 321 321 318 317 315 315 315 315 315 316 318 326 323 316 319 320 324 325 326 330 333 336 336 338 337 338 338 337 338 339 339 338 339 339 340 340 341 341 341 341 341 341 341 342 341 341 342 342 343 342 341 341 341 341 341 341 341 341 340 339 339 339 338 337 335 333 332 333 332 334 338 339 340 340 340
324 326 327 326 327 329 338 340 337 331 325 320 317 321 319 320 322 321 322 319 321 320 320 320 319 316 314 317 315 316 317 316 317 321 321 317 317 319 323 324 325 326 327 330 330 331 330 331 331 331 333 335 336 337 338 338 338 339 339 340 340 340 340 340 340 341 340 340 340 341 342 342 340 340 341 341 340 340 341 340 340 340 339 339 339 339 339 338 338 338 335 333 335 336 338 340 340
323 326 326 326 334 337 346 346 340 332 322 321 318 322 323 319 321 321 321 319 319 320 318 318 318 315 316 318 315 318 317 316 315 318 320 316 317 320 321 321 322 324 324 326 326 328 329 329 329 329 330 330 331 333 335 336 338 338 338 338 339 339 339 339 339 340 340 340 339 340 341 341 340 339 340 340 340 339 339 340 340 339 339 339 339 340 340 340 340 340 339 337 335 334 336 339 340
320 323 324 326 337 337 341 339 339 335 322 325 321 320 324 320 321 319 318 317 317 320 318 317 316 314 316 315 316 319 316 315 315 315 318 314 315 318 318 318 319 321 322 323 324 326 327 328 328 329 329 328 329 329 331 333 334 336 337 339 340 339 338 339 339 339 339 339 339 340 340 339 339 338 339 339 340 340 339 339 339 339 339 339 338 338 338 340 340 340 340 339 339 338 338 339 340
320 323 325 325 327 328 336 327 322 326 321 327 323 318 323 318 319 319 317 317 317 318 317 317 316 315 315 313 314 315 313 315 314 314 315 312 312 313 314 314 315 316 316 318 319 320 321 322 323 324 325 326 327 328 329 330 331 332 334 336 338 338 339 339 339 339 339 339 340 340 339 340 340 339 340 340 340 340 339 339 339 339 338 338 337 336 336 338 339 340 341 339 339 340 339 340 340
321 323 329 330 325 329 340 328 318 321 317 321 323 320 321 318 319 319 318 317 317 315 314 316 315 315 315 314 314 312 311 313 312 312 312 310 309 309 310 310 311 311 311 313 313 314 314 315 316 317 319 321 323 325 326 327 328 329 330 332 334 335 337 338 338 338 338 338 339 340 339 340 340 340 340 340 339 339 338 339 338 338 337 336 335 334 334 336 337 338 339 338 337 338 339 340 340
322 321 331 339 335 338 340 329 323 324 318 316 321 322 320 317 318 319 318 319 318 314 313 313 313 314 313 313 313 311 310 311 310 310 309 309 309 308 307 307 308 308 308 309 310 310 311 311 311 312 314 316 319 321 322 324 325 326 327 328 329 331 332 334 335 336 338 338 338 339 339 339 339 340 341 340 338 338 338 338 338 337 336 335 333 332 332 334 336 337 337 337 337 337 338 339 339
321 320 327 336 335 337 333 324 320 320 319 317 318 320 321 317 318 319 318 317 316 313 312 312 313 315 311 311 312 310 309 309 309 308 308 308 308 307 306 305 306 306 307 307 307 308 309 308 307 309 312 313 315 317 319 320 322 323 324 324 325 327 328 329 331 332 334 336 337 338 338 337 336 337 338 338 337 337 337 337 337 336 335 335 334 332 332 334 336 335 335 337 338 338 337 337 339
324 324 327 334 334 332 324 320 320 318 317 318 316 317 318 317 318 318 317 315 313 313 312 312 312 313 311 310 311 309 307 308 307 307 306 306 306 307 306 305 304 305 305 305 305 305 307 306 304 307 311 312 313 313 315 315 317 318 319 320 321 322 324 325 327 328 329 331 333 335 336 336 335 335 335 336 336 336 337 337 336 336 336 335 334 333 333 335 336 335 333 335 337 338 337 335 336
329 333 337 340 332 323 319 320 319 316 317 318 317 317 317 317 318 316 315 315 313 313 311 312 312 311 310 310 310 307 305 306 306 305 305 304 305 305 305 304 304 304 304 304 303 303 304 304 302 303 307 309 308 308 310 312 313 314 315 316 317 318 320 321 323 325 326 328 329 331 332 333 334 335 334 335 335 336 336 335 336 336 336 335 335 334 333 334 335 334 333 333 335 336 336 335 334
328 335 349 344 328 320 318 322 318 318 321 319 317 317 317 318 319 315 315 315 313 315 312 312 313 311 311 310 309 305 303 304 304 303 303 304 304 305 304 304 304 304 303 302 302 301 302 302 301 300 301 303 303 303 305 308 310 310 311 312 314 315 316 318 319 321 323 325 326 328 329 330 332 333 333 333 334 335 335 335 335 335 335 335 334 333 332 332 332 332 333 333 334 334 334 334 333
329 331 344 330 326 325 320 322 319 322 323 319 316 315 317 317 317 314 316 315 313 316 313 311 312 312 311 309 308 305 303 302 302 302 302 303 303 304 304 304 304 303 302 301 301 301 301 301 301 300 300 300 300 300 301 303 304 303 304 305 309 311 313 314 315 317 319 321 323 325 326 327 329 329 330 332 333 333 334 334 334 333 333 334 333 332 332 332 331 331 332 332 333 333 333 333 332
326 333 338 322 326 326 320 321 320 324 319 317 318 315 317 315 315 315 317 317 312 312 310 308 310 312 310 309 308 305 303 301 301 301 302 302 302 303 303 303 303 302 302 300 299 300 301 301 300 300 300 300 299 299 298 299 299 299 298 299 302 304 306 309 311 313 314 316 318 321 323 324 325 326 327 329 330 332 332 333 333 333 332 333 332 332 332 332 331 330 330 331 332 332 332 332 331
322 340 343 328 331 324 319 321 323 327 317 316 317 315 317 313 314 315 316 317 310 307 308 307 307 312 311 309 307 303 302 300 300 301 301 301 300 301 301 301 301 301 301 299 298 298 300 301 300 299 299 299 299 298 298 297 297 297 297 297 297 298 299 301 303 307 310 313 315 316 318 319 321 323 324 325 327 329 330 332 333 334 333 333 331 331 332 332 332 331 330 330 330 330 331 331 331
328 347 344 331 329 321 318 320 324 324 315 317 315 315 316 309 311 312 310 312 307 304 306 305 304 307 307 306 304 301 301 300 299 300 300 300 299 299 299 299 299 300 300 298 298 297 299 300 300 299 298 299 298 297 297 297 296 296 296 296 296 296 296 297 298 300 305 309 313 315 316 317 318 319 321 322 323 324 327 329 331 333 334 333 332 332 332 332 332 331 330 329 328 328 329 330 331
339 350 343 333 327 318 317 319 322 320 314 317 314 316 316 308 308 308 306 306 304 302 302 303 302 303 302 302 302 300 300 299 299 300 299 299 298 298 298 298 298 299 298 298 297 297 297 298 300 300 298 298 298 297 297 296 295 295 295 295 295 295 295 296 296 297 300 305 306 308 312 315 317 318 318 319 320 321 322 324 327 331 333 333 333 332 333 332 332 331 330 329 328 327 328 329 329
345 344 331 329 327 318 317 318 319 318 315 315 315 316 316 310 309 308 306 304 303 302 301 301 301 301 301 301 300 299 299 299 299 299 298 297 297 297 297 297 297 298 297 297 297 297 297 296 298 299 298 298 298 297 296 295 295 295 295 295 295 295 295 295 296 297 300 301 299 301 307 312 317 318 319 319 319 320 320 320 323 327 330 332 332 332 333 333 332 331 331 330 329 328 328 329 329
337 336 325 330 332 317 315 318 315 317 316 315 315 314 315 312 310 309 309 305 303 303 301 301 301 300 300 299 299 299 298 298 299 298 298 297 297 297 297 297 296 297 297 297 296 296 296 296 297 298 297 297 297 296 295 295 295 295 296 296 296 296 296 295 297 298 298 297 297 301 305 306 310 312 315 318 319 320 321 321 321 323 326 330 332 332 333 332 332 332 331 330 329 329 329 330 329
326 328 323 333 335 317 313 317 315 317 316 316 315 313 314 312 310 310 308 306 304 304 303 302 301 301 301 300 298 298 298 297 297 298 298 297 297 296 296 297 296 296 296 296 296 296 296 296 296 297 296 296 296 295 295 295 295 295 295 296 296 296 296 296 297 298 297 296 298 302 303 300 300 301 305 312 317 319 320 321 322 323 324 326 329 332 333 332 332 332 332 331 330 330 331 331 329
321 321 322 328 326 316 314 316 316 318 316 317 316 314 314 311 311 308 307 308 306 304 304 303 302 300 301 300 298 298 298 297 296 296 297 297 297 296 296 296 296 296 296 296 296 296 296 295 295 296 296 295 295 295 294 294 295 295 295 295 295 295 295 295 296 297 297 297 299 301 300 298 298 298 300 306 310 314 317 319 321 323 324 325 326 328 330 331 331 332 331 330 331 332 332 332 330
317 318 323 325 319 314 314 315 317 316 315 318 315 313 313 311 311 306 308 313 308 304 304 302 301 300 300 299 298 297 296 296 296 296 296 296 296 296 296 296 295 296 295 295 295 296 296 294 294 295 295 295 294 294 294 294 294 295 295 295 295 295 295 295 295 296 296 297 299 299 298 298 298 298 299 299 300 305 311 314 315 317 320 323 325 326 327 327 330 331 331 331 331 332 332 333 330
317 320 322 321 317 314 314 315 317 317 317 316 313 313 312 312 310 305 307 310 306 303 302 300 299 299 298 297 297 298 297 295 296 296 296 296 296 296 296 296 295 295 295 295 295 295 295 294 294 295 295 294 294 294 294 294 294 294 294 294 294 294 294 295 295 295 296 296 298 298 297 297 297 298 298 297 297 300 304 306 308 310 315 319 322 325 326 326 327 330 331 331 331 331 332 333 331
316 321 322 318 315 314 315 315 317 319 317 314 311 313 315 314 311 305 304 304 302 301 299 298 298 297 297 297 297 297 297 296 296 296 296 296 296 296 296 296 295 295 295 295 295 295 294 294 294 294 294 294 293 293 293 294 294 294 294 294 294 294 294 294 294 295 295 296 297 297 296 297 297 297 297 297 297 298 300 301 304 310 315 315 315 318 324 326 326 328 330 331 331 332 333 333 331
317 320 322 318 316 316 315 315 319 319 314 314 314 315 315 313 310 305 303 301 300 299 298 297 297 296 296 298 297 295 295 296 296 296 296 295 295 295 295 295 295 295 295 294 294 294 294 294 294 294 294 293 293 293 293 293 293 293 293 293 293 293 293 294 294 294 294 295 296 296 296 296 297 297 297 297 297 298 298 299 305 311 313 311 310 311 317 324 326 326 329 331 331 332 333 333 331
317 319 320 317 317 317 316 315 317 317 313 315 317 315 311 307 308 306 302 301 299 298 298 297 297 297 297 298 297 294 294 296 296 296 295 295 295 294 294 294 294 294 294 293 293 293 293 293 293 293 293 293 293 293 293 293 293 293 293 293 293 293 293 293 293 293 294 294 295 295 296 296 296 296 296 297 297 297 297 299 304 308 309 310 311 311 311 316 322 326 328 330 331 332 333 332 331
315 317 317 315 315 315 315 315 316 315 312 314 317 316 310 305 309 310 303 300 299 298 298 297 297 298 297 297 296 295 294 295 295 295 295 295 295 294 293 293 293 293 293 293 293 293 293 293 293 293 293 293 293 293 293 293 293 293 293 293 293 293 293 293 293 293 293 294 294 294 295 296 296 296 296 296 296 296 297 299 301 303 308 310 310 310 307 306 313 320 325 328 329 331 332 332 331
314 314 314 316 317 314 315 314 314 313 311 314 318 315 309 306 311 312 304 300 299 298 298 297 298 298 298 298 298 295 294 295 295 295 295 294 294 294 293 293 293 292 292 292 293 293 293 293 293 293 293 293 293 293 293 293 293 292 292 292 292 293 292 292 292 292 293 293 293 294 294 295 295 296 296 296 296 296 297 299 299 302 308 308 305 305 302 299 303 310 319 325 328 329 330 331 331
313 313 313 317 320 317 316 313 313 313 312 314 314 312 309 308 311 310 303 300 299 298 298 298 298 298 298 299 299 296 294 295 295 294 295 294 293 293 292 292 292 292 292 292 292 292 292 292 292 293 292 293 293 293 293 292 292 292 292 292 292 292 292 292 292 292 292 292 293 293 294 294 294 295 296 296 295 296 297 298 299 301 305 304 302 301 300 300 301 305 312 319 325 328 329 329 329
313 312 311 317 320 320 317 312 313 312 313 314 311 314 314 311 309 305 301 300 299 299 298 298 298 298 298 298 299 298 295 294 295 294 294 293 292 292 292 292 292 292 292 292 292 292 292 292 292 292 292 292 292 293 292 292 292 292 292 292 292 292 292 292 292 292 292 292 292 293 293 293 294 294 295 295 295 295 296 297 299 300 301 301 301 300 301 301 303 306 309 314 321 325 327 327 328
313 310 317 320 315 324 324 313 314 312 312 313 310 315 315 312 309 304 301 299 299 299 298 297 298 298 298 298 299 299 296 294 294 293 293 292 292 292 292 292 292 292 292 292 292 292 292 292 292 292 292 292 292 292 292 292 291 291 291 291 291 292 292 292 291 291 291 291 292 292 292 293 293 294 294 294 295 295 296 297 298 299 299 300 300 300 301 302 303 307 310 312 317 322 326 326 326
319 312 323 327 316 325 327 311 314 313 312 312 311 316 316 313 310 303 301 299 299 299 297 297 298 297 298 298 298 299 298 295 294 293 292 292 292 291 292 291 291 291 292 292 292 292 292 292 292 291 291 291 292 292 291 291 291 291 291 291 291 291 291 291 291 291 291 291 291 292 292 292 293 293 293 294 294 295 296 297 297 298 299 300 300 300 301 302 302 305 308 310 313 317 323 326 326
331 318 319 328 319 318 317 310 314 314 312 312 311 316 316 314 309 303 301 300 299 299 298 297 297 297 297 297 297 298 298 296 294 293 292 292 291 291 291 291 291 291 291 292 292 292 292 291 291 291 291 291 291 291 291 291 290 290 290 290 290 291 291 291 290 290 291 291 291 291 292 292 292 293 293 293 294 295 295 296 297 297 298 299 300 300 301 301 301 303 306 308 310 312 318 324 327
331 324 318 322 319 312 312 311 313 312 312 312 311 312 313 313 308 303 302 300 299 299 298 297 297 297 297 296 297 298 299 297 294 292 291 292 291 291 291 291 291 291 291 291 291 292 291 291 291 290 290 290 290 290 290 290 290 289 289 290 290 290 290 290 290 290 290 290 291 291 291 291 292 292 292 293 293 294 295 295 296 296 298 299 300 300 301 301 301 302 305 307 308 309 311 317 324
319 321 317 317 315 310 311 311 311 312 312 312 312 312 311 311 307 303 302 299 299 299 298 297 296 296 297 297 297 298 299 298 294 292 291 292 292 291 291 291 291 291 291 291 291 291 291 291 290 290 290 290 290 290 290 289 289 289 289 289 289 289 289 289 289 289 289 289 289 289 289 290 290 291 291 292 293 294 294 295 295 296 297 299 300 300 301 300 300 301 303 305 307 306 306 308 316
313 315 315 314 314 310 309 309 310 312 311 312 312 311 311 311 309 305 301 299 299 299 298 297 296 296 297 297 297 298 299 297 293 292 292 292 291 291 291 291 291 291 291 291 291 291 290 290 290 290 290 289 289 289 289 289 288 288 288 288 288 288 288 288 288 287 287 287 287 288 288 288 288 288 289 289 290 291 293 294 295 296 297 299 300 301 300 300 300 300 301 304 306 305 305 304 308
312 312 314 313 312 310 308 309 311 311 311 313 312 311 311 311 310 306 302 300 299 298 298 297 296 296 296 297 297 298 298 295 293 291 292 292 291 291 291 291 291 291 291 291 291 290 290 290 290 289 289 289 289 289 288 288 288 288 288 287 287 287 286 286 286 286 286 286 286 286 286 287 287 286 286 286 287 288 290 292 294 295 296 298 300 300 300 300 300 300 300 302 305 305 305 304 303
310 311 312 312 312 310 308 309 310 308 310 314 313 311 310 309 308 305 302 300 299 298 298 297 296 296 297 297 297 297 297 295 293 292 291 292 291 291 291 291 291 291 291 291 290 290 290 290 289 289 289 289 288 288 288 287 287 287 287 286 286 286 286 286 285 285 285 285 285 285 285 285 285 285 285 285 286 286 286 288 291 294 296 297 299 300 300 301 300 299 300 301 304 304 304 304 302
310 311 312 313 312 312 312 310 309 308 309 313 314 310 309 309 308 306 303 300 299 299 298 298 296 296 296 296 296 296 295 295 294 293 291 292 291 291 291 291 291 291 291 291 290 290 290 289 289 289 289 288 288 287 287 287 287 286 286 285 285 285 285 285 284 284 284 284 284 284 284 284 284 284 284 285 285 285 285 285 287 291 295 297 298 300 300 300 300 299 299 301 303 304 303 303 303
312 312 312 314 313 313 314 312 312 311 309 311 312 308 307 307 307 307 303 301 300 299 299 299 297 297 296 296 296 295 295 296 295 294 292 291 291 291 291 291 291 291 291 290 290 290 290 289 289 289 288 288 288 287 287 287 286 286 285 285 285 284 284 284 284 284 284 283 283 283 283 283 283 283 283 283 283 283 284 284 285 287 292 296 298 300 300 300 300 299 299 300 302 304 303 302 302
321 318 312 313 313 312 313 312 312 312 312 312 309 307 309 308 306 307 304 300 300 300 299 299 297 297 297 296 296 295 296 297 297 296 294 291 291 291 291 291 291 291 290 290 290 290 289 289 289 289 288 288 287 287 287 286 286 285 285 284 284 284 284 284 283 283 283 283 282 282 282 282 281 281 281 281 282 282 282 283 284 285 290 295 297 299 300 300 299 299 298 299 301 303 303 303 302
324 323 316 314 313 313 313 313 311 311 315 313 307 310 314 310 307 307 303 300 300 299 298 298 297 296 297 297 295 296 298 298 297 296 293 290 290 291 291 291 290 290 290 290 290 290 289 289 289 288 288 288 287 287 286 286 285 285 284 284 283 283 283 283 283 282 282 282 281 281 281 281 281 280 280 280 281 282 283 283 284 285 288 293 296 298 300 300 299 298 298 299 301 303 303 303 303
318 318 317 316 312 312 313 311 311 314 315 309 306 310 312 308 308 309 305 301 300 299 297 297 296 296 296 295 295 296 297 297 296 294 291 290 290 290 290 291 290 290 290 290 289 289 289 289 288 288 288 287 287 287 286 286 285 284 284 283 283 283 282 282 282 282 281 281 281 280 280 280 280 280 280 280 282 282 283 284 285 287 289 292 296 297 298 298 298 298 298 298 301 303 303 303 304
320 316 315 314 311 312 311 308 310 313 310 307 306 307 307 306 308 308 305 303 301 298 297 297 296 296 295 294 294 296 296 295 295 295 293 290 290 290 290 290 290 290 290 290 289 289 289 289 288 288 287 287 287 286 286 285 285 284 283 283 283 282 282 282 281 281 281 280 280 280 279 279 279 279 280 280 281 281 281 282 284 287 290 293 295 296 298 298 298 299 298 298 301 304 303 303 303
319 313 309 308 307 309 308 307 309 309 306 307 307 306 307 309 309 306 301 302 302 299 297 296 295 295 294 294 294 295 295 295 295 295 293 290 290 290 290 290 290 290 289 289 289 289 288 288 288 287 287 287 286 286 286 285 284 284 283 283 282 282 282 281 281 280 280 280 279 279 279 279 279 279 279 279 279 279 280 281 282 283 286 289 291 293 296 297 298 299 298 298 301 303 302 301 302
313 310 308 310 310 308 306 306 307 307 306 308 308 306 308 313 313 307 301 302 303 300 298 296 295 295 294 293 294 294 294 295 295 293 290 289 290 290 290 290 290 290 289 289 289 289 288 288 287 287 287 286 286 286 285 285 284 283 283 282 282 281 281 281 280 280 279 279 279 279 278 278 278 278 278 278 278 279 279 280 280 281 283 284 286 288 292 295 297 298 298 297 298 299 299 299 300
309 311 313 315 314 310 309 310 308 309 311 311 310 308 308 311 313 307 304 306 304 302 300 297 296 295 293 292 293 293 293 294 295 293 289 289 290 290 290 290 289 289 289 289 289 288 288 287 287 287 286 286 286 285 285 284 284 283 282 282 282 281 281 280 280 279 279 279 278 278 278 278 277 277 277 277 277 278 279 279 280 280 282 283 285 287 289 292 295 297 297 295 295 295 297 298 299
312 316 314 314 317 315 315 314 310 312 318 315 309 306 306 309 311 307 305 305 303 303 301 298 297 294 292 292 292 293 293 294 294 294 292 290 289 290 290 289 289 289 289 289 289 288 287 287 287 286 286 286 286 285 285 284 283 283 282 282 281 281 280 280 279 279 278 278 278 278 277 277 277 277 277 277 277 278 279 279 279 279 281 282 284 286 287 289 291 295 297 295 294 295 296 298 298
313 314 313 313 319 320 319 317 314 316 319 312 303 303 305 307 309 308 306 304 302 302 300 298 297 294 292 292 292 292 293 294 294 294 295 292 288 288 289 289 289 289 289 288 288 288 287 287 286 286 286 286 285 285 284 284 283 283 282 281 281 280 280 279 279 278 278 278 278 277 277 277 277 276 276 276 277 278 278 278 278 279 280 282 284 286 287 287 288 292 296 296 295 295 296 297 298
309 311 313 316 319 320 320 320 320 320 320 309 299 301 307 307 306 305 304 302 300 301 300 298 297 293 292 291 291 293 293 294 295 295 297 294 288 287 288 289 288 288 288 288 288 287 287 286 286 285 285 285 285 284 284 283 283 282 282 281 280 280 279 279 278 278 278 278 277 277 277 276 276 276 276 276 276 277 278 278 278 278 279 281 284 286 286 287 287 290 294 296 296 296 296 297 298
308 312 315 317 318 319 320 321 322 320 318 310 301 303 310 311 306 299 296 295 296 298 297 296 295 292 292 291 292 293 293 294 295 295 296 292 287 288 289 288 288 288 288 288 287 287 286 286 285 285 285 285 284 284 283 283 282 282 281 281 280 279 279 278 278 278 278 277 277 276 276 276 276 276 275 275 275 276 277 277 277 277 278 280 283 285 285 286 287 289 292 296 296 296 295 296 298
309 309 311 313 316 318 317 316 316 313 310 308 305 306 310 307 301 295 293 292 293 294 293 292 293 292 291 292 291 292 292 293 294 295 295 290 287 288 289 288 288 288 288 288 287 286 286 285 285 285 284 284 283 283 283 282 282 281 281 280 280 279 278 278 278 277 277 277 276 276 276 276 275 275 275 275 275 275 275 276 276 277 278 280 282 282 283 285 286 287 290 294 297 296 296 296 297
310 306 310 313 312 310 309 311 311 308 308 309 308 308 309 307 302 295 292 293 292 291 291 291 292 291 291 291 290 291 292 293 293 294 294 290 287 288 288 288 288 288 288 287 286 286 285 285 284 284 284 283 283 282 282 281 281 280 280 279 279 279 278 278 277 277 277 276 276 276 275 275 275 275 275 275 275 275 275 275 276 277 278 279 279 280 283 285 285 286 288 292 296 296 295 296 297
310 310 311 310 307 304 305 310 310 307 309 311 309 308 309 311 307 296 292 293 292 291 291 291 291 291 290 290 290 291 292 293 293 293 292 288 286 288 288 288 288 287 287 287 286 285 284 284 284 283 283 283 282 282 281 281 280 279 279 279 278 278 278 277 277 277 276 276 275 275 275 275 275 275 274 274 274 275 275 275 275 276 277 277 278 279 282 283 284 284 286 290 295 296 295 296 296
307 309 307 307 310 309 307 308 311 311 312 313 312 310 309 311 309 300 295 293 292 291 290 291 291 290 290 290 290 291 292 292 292 292 293 289 286 288 288 287 288 287 287 286 285 285 284 283 283 282 282 282 281 281 280 280 279 278 278 278 278 277 277 277 277 276 276 275 275 275 275 275 274 274 274 274 274 274 274 275 275 275 276 276 278 279 280 281 282 283 284 287 293 296 295 295 295
300 302 302 304 307 309 308 307 309 312 314 314 314 314 313 311 309 307 301 294 292 291 290 291 291 290 290 290 290 291 291 291 291 292 293 290 286 287 288 287 287 287 286 285 284 284 283 282 282 282 281 281 280 280 279 278 278 277 277 277 277 277 277 277 276 276 276 275 275 275 275 274 274 274 274 274 274 274 274 274 274 275 275 277 278 279 280 280 281 282 283 285 290 294 295 294 295
301 301 302 302 302 306 308 305 305 309 311 313 313 313 315 309 305 308 304 296 293 292 290 291 291 289 290 289 290 291 290 291 292 292 294 290 286 287 288 287 287 286 285 284 283 283 282 282 281 281 280 280 279 278 278 277 277 276 276 276 276 276 276 276 276 275 275 275 275 275 274 274 274 274 273 273 273 273 273 274 274 275 275 276 277 278 278 279 280 281 283 285 288 292 294 294 295
306 304 304 303 303 306 308 306 306 306 308 311 312 313 314 306 301 304 303 297 294 292 291 292 290 289 290 289 290 291 291 292 292 292 294 289 286 287 287 286 286 285 284 284 283 282 281 281 280 280 279 278 278 277 277 276 276 275 275 275 275 276 276 275 275 275 275 275 275 274 274 274 273 273 273 273 273 273 273 273 274 274 275 275 276 276 277 279 280 281 283 285 287 290 293 294 294
Wind_Speed
4 4 3 2 2 4 3 3 2 2 3 3 2 2 1 1 2 3 1 1 1 2 3 1 2 4 8 9 10 10 7 3 1 3 3 6 11 19 24 25 24 23 21 18 17 15 14 14 13 12 9 9 8 7 8 8 7 9 9 10 11 11 12 12 13 13 13 13 13 13 12 11 11 11 10 8 8 9 10 11 12 13 13 13 13 11 10 11 12 13 14 15 14 15 15 16 17
5 3 2 1 1 2 0 2 3 3 5 3 2 2 1 3 3 4 4 3 4 3 3 2 7 9 12 12 8 12 11 7 4 3 3 10 12 18 26 26 25 25 23 20 19 19 18 17 15 14 11 10 9 9 9 9 8 8 9 9 11 13 13 13 14 15 14 14 15 14 13 13 13 13 12 10 10 10 11 12 13 13 15 16 16 15 13 12 12 12 13 14 14 15 15 16 18
4 2 1 1 1 2 1 3 3 2 5 3 2 2 0 1 4 6 7 5 7 4 3 5 8 5 6 8 7 9 4 5 8 2 3 15 11 15 24 24 26 25 24 23 21 21 21 20 18 16 14 12 10 9 9 10 9 8 9 9 11 12 13 14 14 15 15 15 15 14 15 15 15 15 13 12 12 12 12 13 14 14 14 15 16 16 14 13 13 12 12 13 13 14 15 16 18
3 1 1 1 2 3 3 3 2 4 4 3 1 4 2 4 7 6 6 4 5 3 4 5 6 4 7 10 5 6 2 1 9 6 3 17 15 15 22 23 27 26 26 26 24 23 23 22 20 20 19 18 15 12 9 9 10 10 10 10 11 12 14 15 15 15 16 16 15 15 15 15 16 15 14 13 13 14 14 14 15 15 15 16 15 15 15 15 15 14 13 12 12 13 14 16 18
3 1 1 1 2 1 3 3 2 4 3 5 2 4 4 6 7 6 4 5 3 5 5 5 4 1 7 7 2 3 4 3 9 13 7 17 21 20 23 24 26 28 28 27 26 26 24 23 22 22 21 20 20 17 15 12 11 11 12 12 12 12 14 16 16 16 16 17 16 15 15 16 16 15 14 14 14 15 16 16 16 16 16 17 17 16 16 16 16 16 15 14 13 14 15 17 19
4 2 2 2 2 1 3 3 3 2 3 5 3 4 6 6 6 6 2 3 2 7 7 6 6 5 6 4 5 5 6 3 7 13 11 17 25 23 24 25 27 29 29 28 28 27 26 25 23 23 22 21 20 20 19 18 17 15 13 12 13 14 15 16 17 17 17 17 17 16 17 16 17 15 15 15 15 15 17 17 17 17 17 18 18 18 17 17 17 17 17 17 16 16 17 18 20
3 2 2 3 1 2 5 3 4 2 1 5 5 5 6 5 6 6 3 1 3 7 9 7 8 10 5 2 5 10 15 13 7 12 17 21 25 26 26 27 29 31 30 29 29 28 28 27 26 25 24 23 22 22 22 21 21 20 18 16 14 15 15 16 17 18 18 18 18 18 18 17 17 16 16 16 16 16 17 17 17 18 18 19 19 20 19 18 18 17 18 19 18 17 17 18 20
1 1 1 4 2 3 5 3 2 3 0 1 3 5 6 4 6 5 3 1 2 5 8 7 10 12 4 4 6 10 19 17 13 19 23 24 26 27 28 28 30 31 30 30 29 29 29 29 28 27 26 25 24 24 23 23 23 23 23 22 20 19 18 17 17 18 18 19 20 20 20 19 18 17 17 19 19 18 18 18 18 18 19 20 21 21 21 20 19 18 19 19 17 17 18 18 19
1 2 1 3 2 3 3 3 1 2 1 2 2 3 4 3 4 4 4 2 3 5 5 5 7 10 4 8 7 6 14 15 18 23 24 25 25 26 29 30 30 30 30 29 29 29 29 30 30 30 29 28 27 26 25 24 24 23 23 23 24 23 22 21 20 20 19 19 20 22 22 20 21 20 19 19 20 20 19 20 20 20 20 21 22 22 23 22 22 21 20 19 17 18 19 18 19
2 2 2 3 3 4 3 1 1 1 2 3 2 3 2 2 4 5 5 4 5 7 6 4 9 10 8 6 5 4 10 13 19 22 23 24 24 26 28 29 29 29 29 29 29 29 30 30 32 32 31 30 29 28 27 26 26 25 24 24 24 23 23 23 22 22 21 21 21 22 23 21 23 24 23 21 21 21 20 21 21 22 22 22 23 24 25 24 24 24 23 21 19 19 20 19 19
3 4 3 4 4 3 1 2 2 2 3 3 3 5 2 2 5 5 4 5 5 7 5 7 9 9 8 5 2 6 11 15 18 19 21 23 25 27 27 28 28 28 28 28 28 29 30 30 31 32 31 30 29 29 28 28 28 27 26 26 25 25 24 24 23 22 22 22 21 22 23 23 25 26 25 25 24 23 22 22 23 24 24 24 24 24 26 26 26 25 25 24 23 22 21 21 20
2 4 4 4 3 2 2 5 4 3 4 4 2 5 1 4 5 3 5 5 4 6 3 4 6 7 7 4 0 7 14 16 15 18 20 21 23 25 26 27 26 27 27 27 28 29 29 30 30 31 30 30 29 29 29 29 28 28 28 28 27 27 26 26 25 24 23 22 22 22 22 23 26 27 27 27 28 26 24 24 24 25 25 25 26 26 26 27 28 28 27 27 26 26 25 23 22
3 1 4 2 2 3 3 5 3 1 4 2 2 3 2 5 4 4 6 7 7 6 5 6 6 7 6 3 1 4 11 14 15 19 20 21 22 23 24 25 25 25 26 27 28 28 28 29 29 30 29 29 30 30 29 29 29 29 29 28 28 28 27 28 28 27 26 25 24 23 23 23 24 26 28 29 29 29 27 26 26 26 27 27 27 28 28 28 28 29 29 29 29 28 28 26 23
3 2 5 2 0 3 4 4 1 2 1 2 1 3 2 4 3 5 8 8 9 3 2 6 4 8 5 3 2 2 6 11 16 17 18 20 20 21 23 23 24 25 26 27 28 28 28 29 29 30 30 30 30 31 31 31 30 30 30 30 29 29 28 28 28 28 28 27 26 25 25 25 25 25 26 28 29 30 30 29 28 28 29 29 29 29 29 28 28 29 29 29 30 29 29 28 26
3 2 4 3 3 2 2 3 2 4 2 2 1 1 5 5 2 6 6 7 5 4 1 8 5 4 4 5 2 2 3 11 16 16 17 19 20 22 22 23 24 25 26 27 28 29 28 28 29 31 32 31 32 33 33 33 33 32 32 32 32 31 30 30 29 29 28 28 29 29 28 27 27 26 26 27 28 29 30 31 32 32 32 31 30 30 30 29 29 29 30 30 30 30 30 29 27
3 3 4 3 2 2 2 2 2 4 2 3 3 1 7 7 5 6 4 4 4 6 4 6 6 4 5 6 7 5 7 13 16 16 18 20 22 23 24 25 25 25 26 27 29 29 29 29 29 31 31 31 31 32 33 34 34 34 34 34 33 33 32 32 31 30 29 29 30 31 31 31 30 30 29 28 29 29 29 31 33 34 33 33 32 31 30 30 30 30 31 32 32 32 32 31 29
3 4 5 3 1 1 1 2 3 3 2 3 4 2 7 5 5 6 6 9 9 7 9 6 6 8 7 8 10 9 12 15 17 18 22 24 24 26 27 27 26 26 27 27 28 28 29 28 28 29 29 29 29 30 32 33 34 35 36 36 35 34 33 33 33 33 32 30 31 32 32 33 33 33 32 31 31 30 30 31 33 34 34 34 33 32 31 31 31 32 32 33 33 34 34 33 31
5 3 4 2 1 1 3 5 5 4 3 3 4 1 8 7 3 5 6 12 10 10 10 7 9 9 9 12 12 13 17 19 21 22 24 25 24 25 25 27 27 26 25 26 26 27 28 28 27 27 28 27 27 29 31 33 34 35 35 36 37 36 36 34 33 34 34 34 34 33 32 34 34 34 33 33 32 32 31 31 32 33 33 34 33 33 33 33 32 33 34 34 35 35 35 35 33
4 3 3 1 4 1 2 6 5 4 6 3 3 1 5 5 5 4 4 5 7 10 6 5 9 7 8 10 12 17 20 22 21 22 21 20 20 19 19 21 23 23 22 23 23 24 25 25 24 24 26 26 27 29 31 33 33 32 33 33 35 36 36 36 33 33 35 36 36 34 32 33 33 33 33 33 33 33 33 32 32 32 33 34 35 36 35 34 34 35 35 35 36 36 36 36 34
2 3 3 4 5 1 3 4 5 5 7 6 2 1 3 1 2 4 7 6 4 8 6 4 6 5 5 6 12 17 19 20 19 19 17 15 15 15 15 16 18 20 19 18 19 20 22 23 22 22 23 24 26 30 31 32 32 31 31 31 33 33 34 35 33 33 34 36 35 33 33 34 34 34 34 33 33 33 33 33 33 33 33 34 35 37 38 36 36 37 36 36 38 38 38 36 34
1 2 2 6 4 2 2 4 6 5 6 7 4 2 4 2 3 5 11 8 1 6 7 7 9 9 7 5 9 14 15 16 16 17 15 12 12 12 14 13 13 15 16 17 18 19 20 22 22 21 21 24 27 30 30 31 32 31 31 31 31 32 33 33 32 33 34 35 34 33 34 36 36 36 34 34 34 33 33 33 33 33 34 34 34 35 37 38 38 38 37 39 40 40 40 37 35
1 2 4 6 3 3 3 5 4 4 4 5 4 3 3 1 4 4 9 7 4 6 6 9 11 10 9 8 9 11 12 13 14 15 13 11 10 9 11 12 12 13 15 17 17 17 18 21 22 20 21 25 28 29 30 31 32 32 32 32 32 32 32 32 32 33 33 33 32 33 36 37 37 36 34 35 36 35 33 33 33 34 34 34 35 35 36 36 38 40 40 41 42 40 41 40 37
0 4 3 3 3 3 3 4 3 4 6 5 4 3 3 5 4 1 4 4 6 6 7 10 10 12 13 12 10 9 9 10 11 12 11 10 8 7 7 10 12 13 14 16 16 15 17 20 22 21 22 26 28 29 30 31 32 32 32 32 33 32 32 31 32 33 32 32 31 32 35 37 37 36 36 36 36 36 34 34 34 34 34 34 34 34 36 35 36 39 41 43 43 41 41 42 40
2 3 4 2 3 4 5 5 4 6 8 3 3 4 4 6 4 2 4 5 6 8 10 12 13 14 15 11 8 8 9 9 10 9 9 8 7 6 5 7 10 12 12 15 16 15 16 20 21 21 23 26 28 29 30 31 32 32 32 33 33 33 33 32 33 32 31 31 31 32 33 35 36 36 37 37 36 35 35 36 35 34 33 34 35 34 35 35 35 37 41 43 43 42 42 42 41
2 4 4 2 2 2 4 6 5 7 7 3 5 4 5 7 6 5 5 6 7 9 10 11 12 11 11 9 8 8 8 9 9 7 6 5 6 7 8 7 9 12 13 16 17 16 17 19 20 22 24 27 29 30 31 32 32 33 34 34 34 34 34 34 34 32 32 31 31 32 33 33 34 35 36 37 37 37 37 37 35 34 34 34 35 35 34 34 34 35 39 42 43 43 43 43 43
3 4 3 2 4 4 0 3 5 6 4 4 6 1 2 5 5 4 5 7 8 9 9 9 9 9 8 8 7 8 8 8 8 6 4 4 6 9 12 11 12 14 15 17 18 17 18 20 21 23 26 27 29 30 31 32 33 34 34 34 35 35 36 36 35 34 33 33 32 33 33 32 33 34 35 35 36 37 38 37 35 35 36 35 34 34 34 34 34 35 37 40 42 43 43 44 43
3 2 3 3 5 5 2 2 4 4 2 4 6 1 3 4 0 1 7 8 8 9 9 7 8 8 7 7 7 9 9 8 8 5 4 5 6 10 14 14 14 16 17 18 19 19 19 20 21 23 26 27 28 29 30 31 32 32 33 33 33 34 35 36 37 36 36 35 34 35 34 33 34 34 35 35 35 37 37 36 36 36 35 34 33 33 35 36 36 35 36 39 41 42 44 45 45
2 3 5 7 6 5 3 4 4 4 1 4 9 2 1 2 4 4 10 9 9 10 9 7 8 7 7 7 6 7 9 9 7 4 3 5 8 9 12 14 15 17 18 18 19 18 19 20 22 24 26 27 28 28 29 30 31 32 32 32 31 32 32 33 35 36 36 36 36 35 35 35 35 35 34 35 36 37 36 34 36 35 33 34 35 35 37 38 38 37 37 39 42 44 45 46 46
1 2 4 8 8 6 4 3 4 5 3 4 9 3 1 5 6 4 10 10 8 9 9 7 8 7 7 7 6 6 8 8 5 3 3 5 9 10 11 14 14 16 17 17 17 18 19 20 22 24 26 28 28 27 28 30 31 32 33 33 33 33 33 33 34 35 36 36 36 36 36 36 35 35 35 36 38 37 36 35 34 33 34 36 38 38 39 39 38 38 37 37 40 43 45 45 45
1 2 1 4 7 6 5 1 3 5 4 6 7 1 5 10 9 3 10 11 10 9 8 7 7 6 6 6 6 5 7 8 6 4 6 7 10 11 12 13 13 14 15 15 16 17 19 20 22 24 26 28 28 27 29 31 33 34 36 36 36 36 36 36 37 37 37 37 37 36 36 36 36 36 36 37 38 37 37 36 34 34 35 37 38 39 39 38 38 38 37 36 38 39 41 42 42
1 1 2 2 2 5 7 1 5 4 3 5 6 4 7 9 8 6 9 11 12 11 9 8 7 6 6 6 6 5 7 10 8 6 8 10 11 11 12 12 13 13 13 14 15 17 19 20 22 24 27 29 29 30 32 34 35 36 37 37 36 35 35 37 38 39 40 40 39 38 37 37 37 37 37 38 39 38 37 36 35 35 36 37 37 37 37 37 37 36 35 34 36 37 41 42 42
2 1 3 3 1 5 9 3 7 6 3 3 6 4 6 7 8 8 8 9 11 10 9 9 8 8 7 6 6 5 7 10 8 7 9 11 11 11 11 11 11 11 12 13 15 17 19 21 23 25 29 31 31 32 33 34 35 36 36 36 34 34 34 36 37 39 41 41 40 39 38 38 38 39 39 39 39 38 37 36 37 37 38 37 37 37 36 36 36 36 35 33 33 36 38 41 41
3 1 3 4 3 4 6 4 4 6 2 2 5 5 5 5 7 8 8 9 10 10 10 10 9 9 8 6 6 6 6 7 7 6 8 10 9 9 10 10 10 10 12 14 16 18 20 22 25 29 32 32 32 31 32 33 34 35 35 34 33 33 34 35 37 38 38 39 39 39 39 38 39 40 40 39 39 39 38 38 38 38 38 37 36 36 35 35 35 35 35 35 32 33 36 37 39
4 2 2 5 4 3 4 6 5 3 4 4 5 6 8 6 6 10 10 10 11 11 11 11 10 8 7 7 6 6 6 5 6 8 8 9 8 8 8 9 10 11 13 15 17 19 21 24 28 31 32 32 31 31 31 31 32 33 33 32 32 32 33 35 36 37 36 37 37 38 38 39 40 41 40 40 40 40 39 39 39 39 38 37 36 36 35 35 35 34 34 36 34 32 34 36 39
4 4 3 4 4 4 5 5 4 1 3 6 4 6 11 8 6 10 10 11 12 12 11 10 9 8 7 7 6 7 6 5 8 10 9 8 7 6 7 9 10 12 14 16 18 19 22 26 29 31 31 31 31 30 30 31 31 31 31 31 31 31 33 34 35 36 36 36 37 38 39 40 40 40 40 39 40 40 40 39 40 39 37 36 36 35 35 35 35 34 33 34 36 35 34 36 39
6 5 4 4 5 7 7 6 6 3 4 8 8 9 12 9 7 11 11 10 11 10 9 8 8 8 7 7 6 7 6 6 10 12 9 7 7 6 8 9 10 13 15 16 18 20 23 26 29 29 29 31 31 31 31 31 31 30 30 31 31 31 33 34 34 35 37 37 37 38 39 39 39 40 41 41 40 40 41 40 40 39 38 37 35 34 34 34 34 35 35 34 34 37 38 35 39
4 2 4 6 5 8 8 6 6 2 3 8 9 9 12 10 9 11 11 10 10 9 9 10 9 8 8 8 7 7 6 7 11 11 8 7 5 6 9 10 12 14 14 15 18 20 23 26 28 28 28 30 30 29 29 29 29 29 29 29 30 31 33 34 35 35 37 38 37 37 38 38 39 40 42 42 41 41 42 42 41 40 39 37 36 35 35 34 34 35 34 34 31 31 36 34 36
3 3 4 5 5 8 9 6 5 1 3 7 6 6 11 11 10 9 10 11 13 14 14 14 13 11 9 9 9 8 6 6 9 9 6 6 4 6 10 12 12 12 12 14 19 21 23 25 26 26 26 27 27 26 27 27 26 26 28 29 31 31 31 32 35 36 35 35 35 36 38 39 40 41 41 41 41 42 42 43 42 41 40 38 38 37 35 33 33 34 32 32 30 27 30 34 35
2 2 1 5 4 5 8 6 3 0 1 6 6 5 8 10 11 10 12 14 15 16 17 16 15 14 11 9 9 8 7 6 7 7 6 5 4 7 10 11 9 9 10 14 19 21 23 24 24 24 25 25 26 26 26 25 26 28 29 29 30 31 31 31 33 33 33 35 36 38 39 40 41 43 43 41 41 43 43 44 43 42 41 39 37 37 35 33 32 32 31 30 30 27 27 32 33
3 3 1 5 4 2 5 5 4 3 3 5 8 8 7 8 12 12 12 14 12 12 13 10 12 13 11 10 9 9 9 7 7 6 4 3 4 5 7 8 7 7 10 14 18 20 21 22 22 24 24 24 25 26 26 25 28 31 31 31 31 31 32 34 35 33 33 37 39 39 39 39 41 44 44 43 44 46 46 46 46 44 42 39 37 36 36 34 31 31 31 30 29 27 25 28 32
4 5 5 7 7 6 7 4 5 5 4 5 8 10 6 7 14 13 4 5 8 8 8 8 8 9 8 8 8 8 9 7 6 7 5 2 3 3 5 6 6 7 10 14 17 19 19 20 22 23 24 24 25 26 26 28 30 33 35 36 35 33 32 32 34 36 39 41 41 41 41 41 41 42 43 44 45 46 47 46 45 44 42 40 38 36 36 35 33 32 31 31 29 27 25 26 31
5 5 9 10 10 9 8 5 5 5 5 4 3 6 6 3 8 10 1 3 8 6 9 12 9 8 8 8 8 7 7 6 6 6 5 3 3 1 4 5 4 6 10 13 15 17 18 19 21 23 23 24 25 26 27 29 30 31 32 32 31 32 31 29 30 34 40 42 44 46 46 46 44 43 44 44 42 42 44 44 43 42 41 41 40 37 36 35 35 34 31 30 30 28 26 24 27
3 5 6 7 7 7 7 4 3 2 4 3 3 1 8 2 4 8 4 7 10 7 9 12 10 9 9 8 8 7 7 6 4 4 5 4 2 1 3 4 3 6 9 11 14 16 17 19 21 23 24 24 24 25 26 28 29 29 28 27 26 27 29 33 36 37 38 41 44 47 48 47 45 44 44 41 37 39 42 43 42 41 40 41 40 38 37 36 36 36 31 30 30 28 24 21 23
3 4 3 3 3 5 4 1 2 4 2 6 2 4 7 7 6 7 7 9 10 9 11 11 10 11 10 9 8 8 7 6 6 5 5 4 3 1 3 4 4 6 8 10 14 16 17 19 21 24 24 24 24 25 26 26 27 28 27 26 26 25 27 33 39 40 40 40 42 45 46 47 45 42 39 38 38 40 44 44 42 40 37 36 36 35 37 37 36 35 31 31 30 26 22 21 24
5 4 3 2 2 4 2 1 5 3 3 8 6 6 4 10 5 1 3 7 10 12 14 13 13 13 11 9 9 8 8 7 7 6 6 6 4 2 3 4 5 5 7 10 14 16 17 19 21 23 24 24 24 24 25 26 26 26 27 26 27 28 29 32 35 38 40 40 42 44 44 44 43 40 38 39 41 41 41 43 43 41 40 38 37 35 35 37 36 35 32 30 27 24 21 22 25
3 3 2 2 1 2 1 2 3 2 1 10 8 7 4 9 3 3 1 5 11 13 13 12 13 12 10 10 9 8 7 7 6 6 7 7 4 2 4 6 7 6 7 11 14 16 17 19 20 23 24 24 24 24 25 25 26 26 25 26 28 31 32 34 35 36 37 38 41 44 43 41 40 40 40 39 39 39 39 41 42 41 42 42 40 37 36 36 36 37 36 30 26 25 24 24 27
2 4 4 5 4 2 2 1 1 3 3 11 8 12 9 7 3 6 4 6 9 11 8 9 12 12 11 10 9 8 7 7 6 6 7 7 4 3 6 8 8 7 9 12 14 15 17 19 21 23 25 25 25 26 26 26 26 25 25 25 28 31 32 34 35 36 37 37 39 43 43 40 39 39 40 40 39 38 37 38 40 40 40 41 39 36 35 36 36 38 38 31 26 26 25 25 29
4 4 4 4 5 4 4 4 3 1 6 7 4 9 10 8 5 5 8 7 6 8 10 14 17 15 12 10 8 8 7 7 6 6 6 5 3 5 8 9 9 8 10 13 14 15 18 21 23 25 27 27 27 28 27 27 27 26 25 26 27 30 30 31 33 36 38 37 38 42 41 40 39 38 39 40 38 35 34 36 39 41 40 40 38 36 36 36 37 38 37 32 26 25 25 25 28
4 3 3 3 5 4 3 3 0 3 7 3 1 3 6 10 9 7 11 11 8 7 10 15 18 16 13 11 9 8 7 7 6 5 5 3 4 7 8 9 9 10 12 14 14 16 20 23 25 25 27 28 28 29 28 28 28 27 26 27 28 29 29 30 32 35 37 37 38 40 39 38 38 38 37 37 36 35 35 36 38 39 39 40 37 35 36 37 38 39 37 34 28 24 24 25 29
4 3 3 2 1 3 5 4 3 5 6 2 3 2 4 8 7 7 10 11 8 8 9 11 14 16 14 11 9 7 7 7 6 6 5 4 6 8 9 10 10 12 13 13 13 17 21 24 25 25 27 29 29 29 30 30 29 29 27 28 29 30 30 30 31 33 35 36 37 38 39 37 36 37 37 37 36 35 35 35 36 39 39 40 37 33 35 36 37 39 37 36 31 25 23 24 28
4 4 4 4 3 2 5 4 5 8 7 4 1 2 4 4 3 5 7 7 4 4 5 6 9 11 10 9 8 7 7 6 5 5 5 6 7 8 9 10 11 13 14 12 13 18 22 25 25 26 28 29 30 31 31 31 31 30 29 29 30 30 30 31 31 32 33 36 38 38 38 37 36 38 38 38 36 34 35 35 37 40 40 38 34 31 34 36 36 38 36 35 33 26 22 24 27
2 3 4 2 4 5 4 5 5 4 7 6 3 4 6 4 2 2 2 3 3 3 5 9 10 9 9 8 8 7 7 6 5 6 5 6 8 9 9 10 12 13 13 11 15 21 24 26 26 26 28 30 31 32 32 33 32 32 31 31 32 31 31 31 32 33 33 36 38 37 38 38 38 39 39 38 36 35 35 36 37 38 36 34 34 34 35 35 35 37 35 34 34 28 23 24 26
1 2 3 4 4 5 2 6 3 2 4 7 3 6 7 1 2 2 3 3 2 3 5 10 10 10 9 8 8 7 7 6 6 6 5 6 8 9 10 11 13 13 11 11 17 22 24 25 26 26 29 30 32 33 33 34 33 33 33 32 32 32 32 32 33 34 35 37 38 37 37 38 38 38 38 38 37 35 34 34 35 36 34 34 37 38 36 33 34 35 35 33 34 30 25 25 25
5 3 5 3 1 2 2 2 3 1 5 6 3 9 12 5 3 3 3 2 4 4 6 8 8 9 9 8 8 7 7 7 6 6 5 6 8 10 11 11 11 10 10 13 18 22 23 24 25 26 28 30 32 33 33 33 33 34 34 34 34 33 33 33 34 35 36 37 38 37 36 36 37 37 37 37 35 35 34 34 34 35 36 37 38 37 35 33 33 34 35 35 34 32 27 25 25
4 3 3 2 1 2 1 2 3 3 5 7 6 10 13 9 5 2 5 9 10 8 7 8 10 11 10 8 8 8 7 6 5 5 5 5 9 12 11 11 10 9 10 15 19 22 23 24 24 25 28 30 32 33 33 33 33 33 34 34 34 34 34 34 34 36 36 36 37 37 36 37 37 36 36 36 35 35 35 34 34 36 37 37 36 35 35 34 33 33 34 35 33 32 28 25 25
2 1 2 0 3 3 2 2 2 3 6 9 8 10 11 7 6 8 12 14 14 12 10 11 13 12 10 8 8 8 7 6 6 6 5 6 10 12 10 10 9 9 12 16 19 21 22 24 24 25 28 30 32 32 33 34 34 34 35 35 35 34 34 34 35 36 36 37 37 36 37 36 36 36 35 36 36 35 34 33 33 33 33 32 32 31 31 31 32 32 33 34 33 31 28 25 23
2 2 2 3 2 1 2 2 3 3 6 7 6 11 13 4 5 8 12 13 15 15 14 14 12 11 10 9 9 8 7 7 6 6 6 7 9 10 10 9 8 9 13 16 18 20 22 23 23 25 27 30 32 32 32 33 34 35 36 37 36 35 35 35 36 36 36 36 36 36 37 36 35 35 35 35 35 33 32 31 30 29 28 28 29 30 29 28 29 32 32 33 33 30 28 24 22
6 6 7 7 6 2 3 5 3 3 6 6 3 12 14 3 4 6 7 10 12 14 16 13 10 11 11 9 9 9 7 7 7 6 6 5 7 9 10 8 7 10 13 16 18 20 21 23 24 25 27 29 31 32 32 33 33 35 35 36 36 36 36 36 36 36 36 36 36 36 36 35 35 35 34 34 34 32 31 30 30 29 28 28 30 32 31 27 27 30 30 31 31 30 27 24 21
Wind_Direction
51 94 93 93 329 348 8 61 57 359 73 85 52 80 284 256 118 84 82 14 56 273 241 195 15 79 105 119 127 104 59 37 349 89 128 318 6 18 25 34 36 46 50 50 40 32 29 24 25 20 11 353 328 307 288 272 277 277 273 266 265 263 260 257 255 254 251 249 249 249 250 251 256 261 259 260 261 262 267 270 278 287 292 293 295 296 295 290 280 273 268 266 265 265 264 263 264
50 96 81 52 339 16 272 78 86 8 54 71 337 128 222 333 62 126 158 157 186 228 209 134 64 78 110 128 115 76 44 9 8 105 91 8 27 30 29 35 39 47 51 52 48 45 40 35 30 20 13 358 338 322 305 285 275 272 278 275 271 266 265 265 262 262 261 261 257 253 253 252 253 257 260 262 262 262 267 270 271 277 285 289 292 294 295 292 285 280 274 269 264 262 261 261 263
47 97 73 22 41 71 89 42 96 76 73 111 272 248 331 57 135 180 190 173 199 199 125 77 63 51 86 85 52 66 54 2 20 42 51 19 15 16 24 36 42 49 50 49 47 44 39 36 32 27 22 12 358 335 318 306 296 287 288 282 278 277 277 273 269 270 270 270 266 259 256 255 253 254 256 256 260 263 264 267 270 271 274 278 283 285 284 283 279 278 278 274 266 260 257 258 263
29 53 358 50 67 38 62 50 121 113 115 163 228 262 268 177 177 205 221 217 219 149 102 67 59 360 57 69 39 70 52 328 19 12 35 19 19 23 31 40 44 51 50 49 48 47 43 38 35 32 28 23 20 8 346 325 311 304 301 291 285 286 288 281 276 275 274 275 272 265 260 259 258 258 258 255 259 265 265 263 266 269 270 271 273 274 274 276 276 273 272 273 271 263 256 255 258
10 326 257 96 81 28 87 72 91 100 168 180 152 249 245 202 188 197 234 280 288 80 96 93 94 23 65 60 25 69 331 277 14 18 33 27 40 47 44 46 46 50 48 48 47 47 44 40 38 34 30 26 24 22 15 2 344 327 315 304 296 292 291 289 285 280 277 278 274 267 264 263 262 258 257 259 260 262 265 263 265 269 272 273 270 270 269 270 271 272 271 266 264 261 254 250 251
20 76 120 69 94 141 85 69 87 94 214 168 149 237 234 212 181 162 176 291 345 64 81 83 107 109 85 64 59 57 354 18 20 20 40 42 50 55 51 51 50 50 48 48 46 45 42 39 38 35 33 29 25 24 21 16 10 359 344 325 312 304 297 294 293 288 284 279 272 270 269 264 262 261 258 260 261 261 266 266 267 270 273 274 272 271 269 268 266 269 273 267 262 260 254 249 246
12 68 68 54 32 51 85 110 129 145 222 158 163 201 219 212 164 138 146 190 42 50 70 89 113 100 73 112 72 34 35 50 48 47 60 57 55 55 53 53 54 53 50 49 48 46 43 40 38 36 34 31 29 26 22 19 15 12 6 356 342 331 316 306 302 297 291 283 277 274 270 265 263 264 263 264 264 261 262 264 267 271 274 274 273 271 269 267 266 267 268 268 267 266 261 255 250
355 70 53 83 38 26 90 121 149 175 121 160 186 196 210 184 146 130 143 149 103 57 75 120 109 86 35 79 86 21 38 51 59 64 65 61 57 54 52 53 54 54 52 51 49 48 45 42 40 38 36 33 32 29 25 21 17 14 10 5 0 355 346 335 326 316 304 295 288 283 276 270 269 266 265 269 269 262 257 259 262 266 271 273 272 270 269 267 266 266 266 268 269 270 266 258 256
79 71 50 84 70 39 71 78 84 186 237 288 249 225 225 133 114 107 113 84 97 70 73 159 102 94 107 76 84 12 27 44 61 66 64 62 59 56 53 52 53 52 52 51 49 48 46 44 42 41 40 38 37 34 30 26 21 16 11 7 3 358 354 350 346 339 328 316 305 295 288 281 277 273 271 271 269 266 261 260 262 266 269 272 273 270 267 266 266 265 264 265 266 268 265 258 257
52 40 85 83 74 63 48 73 75 158 238 257 255 275 282 79 76 72 101 96 84 79 72 89 78 108 131 81 81 16 20 45 63 64 62 62 60 59 56 53 53 52 50 49 48 47 45 43 42 42 42 42 40 38 35 31 27 21 16 11 5 360 354 350 347 345 341 334 325 313 305 300 291 282 278 275 270 266 265 265 266 269 269 268 270 269 267 266 267 266 263 262 261 262 263 260 257
35 350 86 79 63 84 123 159 132 163 266 316 329 307 287 113 86 55 76 95 78 107 111 65 82 117 106 79 57 24 36 53 58 58 60 62 62 61 58 54 52 51 49 46 46 45 43 40 40 41 41 40 39 37 35 33 29 25 21 16 10 5 360 355 349 344 341 337 333 327 322 319 310 300 290 282 273 267 265 267 269 268 268 267 267 268 268 267 268 268 266 263 260 261 262 262 259
65 331 61 84 110 142 155 149 164 200 301 357 354 310 2 79 88 92 83 81 44 97 82 23 136 139 84 89 356 19 36 47 51 59 65 66 65 62 60 55 51 48 46 43 42 42 40 38 36 36 37 36 35 34 33 32 29 26 22 18 14 10 6 2 357 350 344 339 334 329 328 325 320 315 308 297 283 274 268 267 271 270 268 268 268 267 267 267 269 269 268 265 262 262 263 262 260
102 146 77 90 164 133 119 137 180 203 341 354 192 292 36 59 87 149 101 61 16 59 8 328 156 114 82 127 67 10 20 37 57 67 70 68 66 64 60 55 50 46 42 40 38 36 36 35 33 31 30 30 29 29 29 28 26 23 21 17 14 12 9 4 1 357 351 345 338 332 328 326 323 321 319 310 299 289 279 272 272 273 271 268 267 268 267 267 268 269 268 266 264 263 263 261 258
111 149 102 100 42 109 129 125 161 112 30 293 245 291 12 60 105 129 99 68 17 41 8 343 115 98 102 138 41 326 359 42 67 72 72 69 67 64 60 55 50 44 39 36 35 34 32 32 30 27 23 21 22 21 21 21 19 18 16 14 13 11 9 5 1 358 356 352 346 339 334 330 326 323 321 318 312 304 294 285 277 273 272 269 267 267 268 267 265 267 267 266 265 264 264 262 257
109 121 92 94 18 50 115 119 148 122 130 286 305 274 70 54 90 93 90 102 27 308 89 19 28 104 132 139 139 229 34 60 71 74 75 70 65 61 56 51 47 44 38 33 32 32 31 29 26 24 20 16 15 13 12 12 12 10 8 8 7 6 5 3 1 359 356 355 352 348 342 338 332 326 323 321 319 314 305 297 284 274 271 269 267 267 268 266 264 265 265 265 265 264 263 262 259
107 105 66 75 41 54 86 93 104 96 172 257 294 231 84 38 34 71 360 114 84 345 50 21 4 93 110 124 145 148 84 72 73 74 70 62 56 52 46 43 42 40 37 31 29 29 28 27 24 21 19 15 11 9 7 6 5 3 2 1 1 1 359 358 358 359 357 355 353 349 346 343 340 336 331 325 323 321 315 307 295 285 277 269 265 265 266 265 264 265 265 264 264 264 263 261 261
61 79 64 60 67 99 142 141 146 135 215 273 322 340 107 66 40 86 26 63 90 45 59 50 40 80 95 116 130 115 86 73 70 66 58 51 45 41 37 34 33 32 31 28 26 25 24 25 23 19 16 14 9 7 5 2 1 0 0 360 0 360 358 356 354 355 357 355 352 349 347 345 343 340 337 333 328 324 321 317 310 299 285 273 269 267 264 264 264 264 265 264 264 263 262 260 260
56 78 72 50 197 116 167 169 177 148 146 248 301 339 125 125 129 133 59 57 82 77 67 69 70 72 95 115 116 96 80 71 65 62 56 47 41 37 31 28 27 25 25 24 23 22 21 21 20 17 14 12 7 6 5 2 2 2 2 1 1 0 359 359 356 355 354 352 351 351 349 347 344 340 338 336 333 329 324 321 318 310 295 280 274 272 265 261 263 263 263 263 263 263 262 260 259
79 109 63 259 201 156 205 163 160 149 149 201 271 208 121 130 157 140 99 101 101 92 82 80 85 78 90 104 97 84 76 70 64 64 62 54 48 40 32 29 26 23 21 20 20 22 19 17 18 16 12 8 4 5 4 3 4 3 2 1 360 359 358 359 359 355 351 349 350 353 351 348 345 342 339 337 335 333 329 325 323 318 309 293 278 271 265 262 264 262 262 262 263 262 260 258 258
109 104 54 252 207 166 272 164 157 175 154 151 215 195 74 55 150 113 119 131 116 125 142 129 120 127 112 95 87 83 76 70 66 66 66 63 59 50 42 33 27 24 21 18 19 22 19 17 17 15 12 8 5 5 4 4 5 4 3 1 359 358 356 356 357 352 349 348 349 350 348 346 344 342 340 340 338 336 333 329 325 321 317 309 292 276 266 261 262 261 260 261 261 260 258 256 255
110 122 165 231 198 134 241 182 159 164 144 144 170 101 77 41 66 121 135 119 123 187 184 165 154 151 136 117 96 89 82 75 67 65 63 64 63 56 49 38 31 26 22 20 19 21 20 17 15 13 12 10 8 7 6 4 5 4 3 1 357 357 355 355 354 350 347 348 348 346 344 343 342 342 341 340 339 337 335 332 328 324 318 314 307 293 278 265 259 258 258 258 257 256 256 255 253
76 261 204 205 168 127 201 191 170 155 113 110 121 107 128 90 52 131 148 140 202 199 180 158 149 147 139 133 116 99 91 83 73 67 61 60 58 53 46 36 31 24 22 21 17 18 18 15 15 16 14 11 10 8 6 5 4 4 1 359 356 355 354 352 351 348 347 346 344 342 341 341 341 341 340 337 335 334 334 332 330 327 322 315 309 304 294 281 267 259 258 258 256 254 254 254 253
89 289 278 222 167 130 186 187 191 155 106 105 143 139 108 87 72 136 141 152 174 153 146 143 139 142 134 127 122 109 102 100 93 83 70 66 61 53 42 31 27 20 19 18 15 18 15 13 16 19 15 12 12 10 8 6 4 2 359 357 355 353 351 349 348 346 345 343 341 339 338 338 338 337 337 335 334 331 329 328 327 326 324 320 314 305 298 291 279 266 260 258 257 254 251 252 251
132 257 302 261 175 151 183 178 180 136 111 128 133 118 133 142 145 97 105 131 133 130 137 135 135 137 128 120 119 117 118 118 115 106 87 74 66 58 43 31 26 18 16 12 10 15 11 10 16 19 17 14 13 12 10 8 5 2 359 356 354 352 349 347 344 343 342 340 337 336 336 334 334 334 333 333 332 330 327 325 324 324 323 323 321 314 301 291 285 274 262 257 256 252 248 249 249
150 226 282 283 220 194 169 156 151 123 117 106 88 124 188 169 145 107 136 143 132 135 133 132 133 131 125 121 122 121 121 122 125 121 104 76 57 47 38 28 20 17 14 11 10 12 10 12 18 20 17 15 14 12 11 8 5 2 359 356 353 351 348 345 343 341 339 337 335 334 333 331 330 329 329 329 328 327 326 325 323 322 322 322 321 319 312 298 287 279 267 256 252 249 247 248 246
221 219 273 317 300 297 217 156 160 141 150 114 80 34 203 155 113 96 174 163 143 138 133 139 133 129 130 129 135 132 127 124 120 112 94 61 36 29 30 28 21 19 16 16 15 13 15 19 21 19 15 14 12 10 9 7 4 1 358 354 352 350 347 344 342 340 337 335 333 332 330 328 326 326 324 324 325 324 324 324 322 320 320 322 322 320 319 312 298 285 271 258 248 244 244 245 244
239 251 284 281 287 294 285 203 190 150 161 129 121 193 190 184 8 158 203 177 151 137 137 149 131 134 142 140 146 136 130 119 108 99 73 41 29 24 28 31 27 25 21 18 16 15 20 21 19 16 14 13 10 9 7 5 2 358 354 351 349 347 345 343 341 339 336 334 332 331 329 326 323 322 321 321 321 321 320 320 320 320 318 321 324 322 321 318 311 297 282 267 253 244 243 242 241
289 337 318 298 312 306 240 186 199 151 155 132 122 125 189 207 296 215 186 170 159 143 142 155 138 147 155 151 154 143 135 115 105 114 79 37 31 27 33 36 30 29 24 17 16 18 20 18 17 15 14 12 9 8 6 3 0 356 352 349 345 343 342 341 340 338 335 332 331 329 327 324 322 319 318 318 318 317 316 314 316 318 316 317 320 322 322 319 315 309 297 281 264 250 242 239 238
309 21 327 303 346 331 261 184 187 161 177 159 118 59 283 213 257 214 161 156 156 143 148 160 150 161 164 156 162 157 144 126 129 143 97 52 45 41 44 43 34 31 25 18 18 19 18 16 16 14 13 12 10 7 4 1 357 354 351 347 345 342 340 339 338 337 334 331 329 327 325 323 321 318 316 316 315 314 312 310 311 312 311 312 315 318 321 320 317 312 307 297 279 257 241 236 234
294 37 37 306 0 327 284 90 148 157 173 170 142 276 254 221 240 201 152 155 149 149 163 170 164 169 167 163 162 163 163 159 160 131 98 68 56 50 49 46 38 31 23 19 19 18 17 15 14 13 12 12 10 7 3 360 356 353 351 348 345 342 340 338 336 336 333 331 328 325 324 322 320 317 315 314 313 311 309 307 306 307 308 309 311 313 317 319 317 312 308 305 293 269 246 236 231
285 2 49 358 4 285 295 27 138 162 205 154 144 246 253 237 238 194 167 161 154 162 177 177 176 178 174 173 164 171 188 179 159 119 99 76 62 55 52 49 40 32 22 19 19 16 15 15 14 11 11 12 11 7 2 358 355 352 350 347 344 341 338 336 335 334 332 330 327 324 323 321 319 317 315 313 311 309 306 304 303 304 305 306 306 309 313 315 315 312 307 305 299 282 258 241 231
27 359 326 334 191 265 305 305 162 180 253 134 142 239 265 252 229 191 173 168 162 168 182 183 184 186 181 181 174 180 199 185 161 124 100 81 69 60 57 51 42 32 21 19 17 15 16 17 14 10 12 13 11 6 0 357 354 351 348 345 342 338 336 334 333 332 330 328 326 324 322 320 318 317 315 313 309 307 303 301 300 301 302 301 302 305 308 311 313 311 306 303 300 293 271 246 231
360 50 275 275 226 279 317 311 206 184 204 194 185 229 271 260 215 188 176 177 172 173 186 189 190 191 183 182 184 185 196 186 169 149 115 93 80 66 60 53 43 31 23 21 17 17 17 16 12 12 13 12 8 3 359 357 353 350 347 344 341 338 336 334 331 329 328 326 325 323 321 320 318 316 314 312 308 305 302 299 298 299 299 296 297 301 303 306 310 309 306 302 299 298 288 263 238
327 7 281 259 245 267 295 305 299 157 175 236 213 224 253 250 195 186 186 181 179 184 189 192 192 190 186 185 188 190 187 173 172 173 142 106 85 70 59 49 40 30 25 24 23 20 17 14 12 13 12 9 6 2 359 356 352 349 346 344 341 339 336 332 330 329 327 326 324 322 321 319 317 315 314 311 308 303 300 298 297 297 295 292 293 296 299 302 306 306 304 302 300 298 296 285 257
263 284 288 290 275 253 251 273 291 149 207 243 218 239 255 250 201 195 196 185 190 196 191 193 191 187 192 190 190 194 186 176 185 180 150 108 82 66 50 40 31 27 26 27 25 18 15 13 11 11 9 7 4 2 359 355 351 349 346 345 342 339 334 331 329 327 326 326 323 321 320 319 318 317 316 314 311 305 301 298 296 295 292 289 289 291 295 299 302 305 303 301 300 299 296 295 283
219 244 237 262 276 270 257 250 258 213 230 251 230 241 254 244 212 202 200 192 198 202 192 193 193 191 195 194 196 193 188 191 190 180 150 105 80 59 39 31 25 26 29 27 21 15 14 11 8 9 7 4 3 2 359 354 350 348 346 344 340 336 332 328 328 326 325 325 323 321 320 319 318 316 315 315 313 309 304 300 297 295 291 286 284 286 290 294 298 301 303 300 298 301 298 295 295
191 213 232 243 244 271 273 265 272 201 196 256 235 233 252 248 225 209 198 192 201 202 198 201 197 195 196 195 197 192 196 196 186 179 149 106 85 58 35 25 22 26 29 24 18 15 12 8 6 7 4 3 3 1 356 352 350 348 344 340 335 332 330 328 327 326 325 324 323 323 321 318 316 315 314 314 312 310 306 302 298 294 290 285 281 281 285 288 293 297 300 300 294 297 299 294 296
192 208 253 274 239 256 273 271 281 161 172 266 254 237 253 252 240 219 187 188 204 201 200 202 196 198 199 193 194 195 199 192 190 190 151 115 86 53 31 23 21 21 26 21 15 12 8 5 5 3 1 1 1 358 353 351 349 345 339 335 331 329 329 327 324 324 324 323 323 323 321 319 316 316 315 313 311 309 307 304 299 293 288 283 279 279 280 283 288 294 297 298 293 289 291 292 291
202 179 253 289 257 268 290 291 305 41 203 274 275 256 254 257 255 231 193 195 209 205 203 201 191 193 194 190 192 192 193 190 200 202 160 125 81 51 28 20 22 21 22 16 10 8 4 1 0 358 358 358 355 353 352 348 344 340 337 332 330 328 326 325 322 322 323 322 323 323 322 320 318 317 315 312 310 308 307 304 300 295 288 282 278 276 277 280 283 290 294 292 292 287 285 288 286
214 189 211 271 275 287 287 307 338 308 259 260 274 269 251 253 259 246 208 200 211 211 209 205 195 193 189 188 189 184 186 191 199 203 183 134 86 50 24 16 21 23 16 9 6 4 359 356 355 354 353 352 350 350 348 344 339 338 337 333 331 328 326 326 324 323 324 323 322 322 321 319 317 314 312 310 308 304 302 300 298 295 289 283 278 273 273 276 279 285 291 289 286 284 284 286 285
260 216 209 249 270 251 245 288 339 317 298 275 286 288 254 219 240 250 220 189 212 204 196 202 206 200 186 189 193 187 188 188 185 196 209 165 109 45 17 17 19 19 9 4 3 358 352 351 350 349 348 347 346 346 344 341 339 339 338 335 334 331 328 328 327 325 324 323 321 320 319 317 315 312 309 309 306 302 299 298 296 292 288 284 278 272 270 273 278 281 285 287 280 275 278 283 286
295 244 216 233 254 257 265 323 359 337 314 307 340 308 275 209 231 250 89 175 214 191 192 202 199 195 191 194 195 194 196 193 183 180 186 170 144 14 8 18 14 7 3 0 356 350 346 345 345 344 343 342 342 342 340 338 339 339 337 334 332 330 326 324 323 321 320 320 319 318 318 317 316 313 311 310 307 304 303 301 298 293 287 284 279 272 269 270 276 278 279 284 278 268 271 277 281
291 258 209 216 236 254 274 322 354 277 265 296 67 264 275 269 222 239 188 199 219 198 205 206 193 193 196 193 188 189 197 194 183 164 159 162 166 242 350 2 352 351 356 354 348 344 342 341 342 340 338 338 338 338 337 335 336 335 332 328 324 322 318 316 317 317 316 316 316 316 316 316 315 313 311 311 309 307 305 304 303 298 289 284 280 273 269 270 272 273 274 280 277 265 262 268 275
243 253 126 135 211 245 267 309 267 245 276 293 220 166 274 275 247 237 185 196 226 215 213 209 196 199 196 191 189 187 191 183 171 168 171 179 184 220 313 318 321 340 345 344 342 340 340 339 339 336 334 335 335 334 333 332 332 331 327 322 317 314 311 311 313 314 314 315 314 314 315 314 314 313 311 309 307 305 303 302 302 302 300 296 292 282 273 270 268 269 272 274 272 262 256 262 273
246 223 122 104 202 231 249 240 257 280 14 290 246 143 258 271 258 308 155 198 235 226 215 208 199 200 193 188 192 192 191 181 167 164 178 188 188 227 287 294 299 319 332 337 338 337 339 338 334 332 331 331 331 330 328 327 328 326 322 318 313 311 310 309 310 311 312 314 314 313 314 313 313 312 309 305 305 304 302 301 300 301 303 304 305 301 290 278 268 267 269 267 263 258 257 261 267
237 155 104 23 20 230 232 241 265 27 25 267 248 151 215 269 224 110 111 221 237 230 216 206 202 202 194 187 192 193 185 178 170 166 178 186 190 249 281 282 286 304 326 330 331 334 336 333 330 329 329 329 328 326 325 324 325 323 318 314 311 310 311 311 310 309 310 312 313 313 313 312 311 310 309 306 304 302 300 300 301 300 300 300 302 305 303 293 278 269 265 259 256 257 258 258 260
124 68 27 358 348 356 40 39 72 59 261 258 232 176 193 271 239 164 190 218 219 216 201 194 204 203 195 191 190 186 175 170 174 175 187 194 205 262 279 278 281 299 318 321 325 329 330 329 330 329 328 328 326 324 323 321 321 319 314 311 309 309 310 310 309 308 309 311 311 313 312 310 309 308 309 307 304 302 299 299 301 302 300 298 298 300 302 301 293 279 264 253 252 255 254 254 257
89 64 36 352 324 359 24 360 53 79 255 263 234 187 194 239 247 201 225 242 221 202 186 190 201 198 190 190 187 180 171 167 168 178 199 210 235 261 276 282 284 292 304 313 320 324 327 331 333 330 328 328 325 323 321 319 318 316 311 308 306 306 306 305 305 305 307 309 310 311 310 308 307 307 308 308 305 302 300 300 301 302 299 298 297 297 297 299 300 287 266 252 247 249 249 248 251
78 78 57 12 325 350 347 302 163 218 245 258 84 162 214 242 249 237 238 249 242 210 196 195 195 187 183 185 182 175 165 164 169 182 203 216 233 249 270 284 279 280 295 308 315 321 329 333 333 329 325 325 323 321 319 317 316 313 310 307 305 304 302 301 301 302 304 307 308 308 307 305 304 305 306 306 305 302 299 299 300 300 299 298 295 295 296 297 300 293 272 256 248 243 244 245 247
136 147 133 143 339 327 293 273 278 277 269 264 100 113 263 267 265 247 244 256 247 213 207 202 187 176 177 177 171 168 165 171 178 183 200 216 226 244 267 276 270 276 292 301 309 322 331 333 332 327 322 322 321 319 317 316 314 312 309 306 304 302 301 300 299 301 302 306 307 305 302 300 299 301 302 302 302 300 298 297 297 297 297 297 293 293 296 296 298 296 278 258 250 244 242 246 248
176 159 138 159 165 225 265 263 272 292 297 276 158 157 239 242 261 256 262 281 271 199 186 164 156 161 165 161 159 165 174 181 185 187 203 217 227 247 264 269 268 277 287 294 310 327 333 332 329 325 321 320 320 318 317 315 313 311 308 305 304 302 299 299 300 300 301 304 306 303 299 297 296 296 297 298 298 297 296 296 296 296 295 294 292 293 296 295 296 298 286 262 251 248 244 246 249
227 131 116 190 186 185 243 257 242 288 309 282 218 211 226 205 232 281 309 332 30 89 130 131 142 154 152 160 168 172 181 186 190 195 212 227 235 249 261 266 272 279 285 296 319 332 334 330 327 323 319 318 318 317 316 314 312 310 308 305 304 302 300 300 299 299 300 303 304 301 297 296 295 295 295 295 296 294 294 294 294 294 293 292 293 295 295 293 294 299 294 270 251 247 243 243 249
169 128 187 222 175 145 226 282 302 58 289 275 242 261 274 281 278 321 50 59 82 106 146 146 153 160 159 170 176 177 185 189 194 195 206 225 236 250 259 266 276 285 292 307 326 333 331 326 324 321 318 317 317 316 315 314 312 310 308 306 304 303 302 300 299 300 301 303 303 300 297 296 295 295 294 294 295 294 291 291 292 291 291 292 294 294 291 291 293 297 298 280 253 244 242 240 246
135 182 223 208 99 82 118 279 321 357 250 267 261 270 278 272 269 324 64 173 199 186 171 159 161 169 173 179 180 185 190 193 197 198 209 223 235 247 256 271 286 297 303 315 326 329 327 325 324 320 317 316 315 314 313 312 311 309 308 307 306 304 303 301 300 301 302 303 301 300 298 296 295 295 294 293 294 294 291 289 290 289 290 292 292 290 288 290 294 295 299 290 261 246 243 239 244
134 212 238 133 167 264 128 153 267 262 260 273 275 280 276 249 225 228 202 204 204 197 184 179 184 185 183 182 185 191 192 191 194 201 218 227 234 245 259 281 299 307 310 318 325 325 325 325 323 319 315 313 313 312 312 311 310 308 307 306 305 303 302 301 301 302 302 301 299 299 298 296 296 294 294 293 292 293 292 289 289 288 289 290 288 287 287 288 293 293 297 294 271 250 245 243 243
65 298 309 357 189 206 185 160 199 240 267 278 285 294 282 239 180 196 207 201 194 187 187 197 198 190 184 181 184 190 189 188 192 201 215 225 235 252 278 296 303 309 312 318 323 323 324 324 321 318 314 312 312 311 312 311 310 309 307 306 304 303 302 301 301 302 301 300 298 298 298 297 296 295 294 294 292 291 291 289 288 287 287 288 286 286 288 288 291 291 291 293 281 260 249 249 248
162 196 232 237 204 190 260 219 165 210 260 272 281 281 274 239 161 198 202 199 196 184 186 202 199 185 184 183 182 184 186 187 193 201 211 226 244 269 293 296 296 306 311 317 322 323 323 321 319 316 313 312 311 312 312 311 310 310 307 306 305 304 303 302 302 301 300 299 299 299 299 296 294 296 296 294 291 289 289 288 287 287 286 287 287 288 290 289 289 290 288 289 287 272 254 252 257
180 189 200 206 203 194 266 258 204 183 238 239 256 277 271 227 156 202 189 192 197 183 189 200 189 182 187 187 184 182 184 187 194 206 212 226 253 272 284 285 293 303 310 318 321 322 321 319 318 315 313 312 312 312 312 310 310 308 306 305 305 304 304 303 302 302 301 301 300 300 300 296 294 295 296 295 292 289 288 286 285 285 285 286 287 287 288 287 286 287 287 288 291 284 265 256 261